Location: Tamazert
(32.6352°N, 5.2072°W)
Time: 07:17:09
(UTC+00:00)

Cosmos 2084 Rocket - Visible Passes

Search period start: 06 October 2022 00:00
Search period end: 16 October 2022 00:00
Orbit: 494 x 679 km, 62.8° (Epoch: 06 October)

Date Brightness Start Highest point End Pass type
(mag) Time Alt. Az. Time Alt. Az. Time Alt. Az.
06 Oct 4.3 19:31:31 10° NNW 19:34:10 31° NNE 19:34:10 31° NNE visible
07 Oct 3.4 19:38:08 10° NNW 19:41:33 61° N 19:41:33 61° N visible
08 Oct 3.7 19:45:01 10° NW 19:48:54 58° WSW 19:49:07 57° SW visible
09 Oct 5.1 19:52:11 10° NW 19:55:39 29° WSW 19:56:59 24° SSW visible
10 Oct 4.0 18:19:41 10° N 18:23:16 33° NE 18:26:59 10° ESE visible
10 Oct 6.1 19:59:54 10° WNW 20:02:22 16° WSW 20:04:55 10° SSW visible
11 Oct 3.2 18:26:14 10° NNW 18:30:08 64° ENE 18:34:13 10° SE visible
12 Oct 3.7 18:33:02 10° NW 18:36:57 64° WSW 18:41:02 10° SSE visible
13 Oct 5.2 18:40:08 10° NW 18:43:41 32° WSW 18:47:24 10° S visible
14 Oct 6.3 18:47:42 10° WNW 18:50:23 17° WSW 18:53:08 10° SSW visible
